Погода в Нельсоне

Новая Зеландия     41°17′20″S   173°14′49″E
темп.,
°C
ветер,
м/с
пор.,
м/с
влажн.,
%
обл.,
%
осадки,
мм/ч
давл.,
гПа
погр.,
м
21 апреля, ср
ср2100:00+11ю2292100 2.8 1008131
03:00+12ююз3389100 0.4 1004127
06:00+12ююз348927 0.5 1003118
09:00+14ююз11858 0.0 1003138
12:00+16с227619 0.2 1002410
15:00+16ссв337945 0.4 1001361
18:00+14ссв238924 0.6 1003266
21:00+14ссз118899 0.0 1005255
22 апреля, чт
чт2200:00+13юз1293100 0.5 1007141
03:00+13юз129089 0.2 1007146
06:00+12ююз228650 0.3 1008126
09:00+13юз22781 0.0 1010199
12:00+15ссв126613 0.0 1010526
15:00+15ссв22730 0.0 1008443
18:00+13всв11820 0.0 1009196
21:00+12ююз228993 0.0 1010103
23 апреля, пт
пт2300:00+11ююз2286100 0.0 1011112
03:00+11ююз2283100 0.0 1010103
06:00+10ю1184100 0.0 1010114
09:00+12ююз0177100 0.0 1011150
12:00+14ссв1269100 0.0 1009406
15:00+14ссв2489100 0.4 1007371
18:00+12з2292100 3.7 1007157
21:00+12ююз2291100 0.1 1007101
24 апреля, сб
сб2400:00+11ююз338968 0.1 1007108
03:00+10юз478820 0.0 1006186
06:00+10юз4887100 0.0 1007199
09:00+12юз47830 0.0 1008238
12:00+17зюз36581 0.0 1009906
15:00+17зсз35545 0.0 1008913
18:00+13зюз3765100 0.0 1010185
21:00+11ююз35795 0.0 1012211
25 апреля, вс
вс2500:00+10ююз348331 0.0 1013153
03:00+9юз45801 0.0 1014149
06:00+7ююз45770 0.0 1014162
09:00+10юз46650 0.0 1014247
12:00+14з25491 0.0 1012923
15:00+15зсз35495 0.0 1009786
18:00+12зюз14625 0.0 1009165
21:00+10ююз357271 0.0 1009155